Terminal Aerodrome Forecast
Issued by NWS Cleveland, OH

Home | Current Version | Previous Version | Graphics & Text | Print | Product List | Glossary On
Versions: 1 2 3 4 5 6 7 8 9 10 11 12
000
FTUS41 KCLE 221727
TAFERI
TAF
KERI 221727Z 2218/2318 35010KT P6SM FEW035 SCT100
     FM230000 35004KT P6SM FEW100
     FM231500 35006KT P6SM SCT035
     FM231700 36009KT P6SM FEW040=

USA.gov is the U.S. government's official web portal to all federal, state and local government web resources and services.